Location: Unspecified
(54.1780°N, 0.0000°E)
Time: 22:52:23
(UTC+00:00)

Vanguard 2 - Pass Details

Date: 24 June 2019
Orbit: 554 x 2937 km, 32.9° (Epoch: 22 October)

Event Time Altitude Azimuth Distance (km) Brightness Sun altitude
Rises 08:27:01 0° 210° (SSW) 3,231 10.6 39.7°
Reaches altitude 10° 08:31:59 10° 169° (S) 2,772 10.8 40.4°
Maximum altitude 08:33:01 10° 160° (SSE) 2,851 11.0 40.6°
Drops below altitude 10° 08:34:08 10° 151° (SSE) 2,994 11.2 40.7°
Sets 08:41:08 0° 116° (ESE) 4,710 12.4 41.7°
